Time,TemperatureF,DewpointF,PressureIn,WindDirection,WindDirectionDegrees,WindSpeedMPH,WindSpeedGustMPH,Humidity,HourlyPrecipIn,Conditions,Clouds,dailyrainin,SolarRadiationWatts/m^2,SoftwareType,DateUTC
2013-07-20 00:01:00,83.1,77.4,29.57,SW,221,0.0,0.0,83,0.00,,,0.00,0,WeatherCatV1.20B785,2013-07-20 04:01:00,
2013-07-20 00:06:00,82.9,77.2,29.57,SW,221,0.0,0.0,83,0.00,,,0.00,0,WeatherCatV1.20B785,2013-07-20 04:06:00,
2013-07-20 00:11:00,82.8,77.4,29.57,SW,221,0.0,0.0,84,0.00,,,0.00,0,WeatherCatV1.20B785,2013-07-20 04:11:00,
2013-07-20 00:16:00,82.6,77.3,29.58,SW,221,0.0,1.0,84,0.00,,,0.00,0,WeatherCatV1.20B785,2013-07-20 04:16:00,
2013-07-20 00:21:00,82.4,77.4,29.58,SW,221,0.0,0.0,85,0.00,,,0.00,0,WeatherCatV1.20B785,2013-07-20 04:21:00,
2013-07-20 00:26:00,82.3,77.3,29.58,SW,216,0.0,0.0,85,0.00,,,0.00,0,WeatherCatV1.20B785,2013-07-20 04:26:00,
2013-07-20 00:31:00,82.2,77.2,29.58,SW,216,0.0,0.0,85,0.00,,,0.00,0,WeatherCatV1.20B785,2013-07-20 04:31:00,
2013-07-20 00:36:00,82.1,77.1,29.58,South,188,0.0,1.0,85,0.00,,,0.00,0,WeatherCatV1.20B785,2013-07-20 04:36:00,
2013-07-20 00:41:00,82.0,76.7,29.58,South,190,0.0,3.0,84,0.00,,,0.00,0,WeatherCatV1.20B785,2013-07-20 04:41:00,
2013-07-20 00:46:00,82.0,76.7,29.59,South,179,0.0,0.0,84,0.00,,,0.00,0,WeatherCatV1.20B785,2013-07-20 04:46:00,
2013-07-20 00:51:00,81.9,75.8,29.58,South,188,0.0,1.0,82,0.00,,,0.00,0,WeatherCatV1.20B785,2013-07-20 04:51:00,
2013-07-20 00:56:00,81.8,75.4,29.59,South,187,0.0,1.0,81,0.00,,,0.00,0,WeatherCatV1.20B785,2013-07-20 04:56:00,
2013-07-20 01:01:00,81.8,75.4,29.59,South,190,0.0,2.0,81,0.00,,,0.00,0,WeatherCatV1.20B785,2013-07-20 05:01:00,
2013-07-20 01:06:00,81.8,74.6,29.59,South,189,0.0,1.0,79,0.00,,,0.00,0,WeatherCatV1.20B785,2013-07-20 05:06:00,
2013-07-20 01:11:00,81.8,74.6,29.58,South,189,0.0,1.0,79,0.00,,,0.00,0,WeatherCatV1.20B785,2013-07-20 05:11:00,
2013-07-20 01:16:00,81.8,74.6,29.58,South,189,1.0,1.0,79,0.00,,,0.00,0,WeatherCatV1.20B785,2013-07-20 05:16:00,
2013-07-20 01:21:00,81.8,74.6,29.59,SW,235,0.0,2.0,79,0.00,,,0.00,0,WeatherCatV1.20B785,2013-07-20 05:21:00,
2013-07-20 01:26:00,81.8,74.2,29.58,WSW,238,0.0,1.0,78,0.00,,,0.00,0,WeatherCatV1.20B785,2013-07-20 05:26:00,
2013-07-20 01:31:00,81.8,74.2,29.59,WSW,238,0.0,0.0,78,0.00,,,0.00,0,WeatherCatV1.20B785,2013-07-20 05:31:00,
2013-07-20 01:36:00,81.8,74.2,29.59,SW,227,0.0,1.0,78,0.00,,,0.00,0,WeatherCatV1.20B785,2013-07-20 05:36:00,
2013-07-20 01:41:00,81.8,74.2,29.59,SW,227,0.0,0.0,78,0.00,,,0.00,0,WeatherCatV1.20B785,2013-07-20 05:41:00,
2013-07-20 01:46:00,81.8,74.2,29.59,SW,230,1.0,1.0,78,0.00,,,0.00,0,WeatherCatV1.20B785,2013-07-20 05:46:00,
2013-07-20 01:51:00,81.7,74.2,29.59,SW,229,0.0,2.0,78,0.00,,,0.00,0,WeatherCatV1.20B785,2013-07-20 05:51:00,
2013-07-20 01:56:00,81.5,73.6,29.59,SSW,207,0.0,1.0,77,0.00,,,0.00,0,WeatherCatV1.20B785,2013-07-20 05:56:00,
2013-07-20 02:01:00,81.4,73.5,29.58,SSW,213,0.0,3.0,77,0.00,,,0.00,0,WeatherCatV1.20B785,2013-07-20 06:01:00,
2013-07-20 02:06:00,81.4,73.5,29.58,SSW,213,0.0,1.0,77,0.00,,,0.00,0,WeatherCatV1.20B785,2013-07-20 06:06:00,
2013-07-20 02:11:00,81.3,73.8,29.58,SSW,213,0.0,1.0,78,0.00,,,0.00,0,WeatherCatV1.20B785,2013-07-20 06:11:00,
2013-07-20 02:16:00,81.2,73.3,29.58,SSW,213,0.0,0.0,77,0.00,,,0.00,0,WeatherCatV1.20B785,2013-07-20 06:16:00,
2013-07-20 02:21:00,81.1,73.2,29.58,SW,218,0.0,1.0,77,0.00,,,0.00,0,WeatherCatV1.20B785,2013-07-20 06:21:00,
2013-07-20 02:26:00,81.0,73.1,29.58,SW,215,0.0,1.0,77,0.00,,,0.00,0,WeatherCatV1.20B785,2013-07-20 06:26:00,
2013-07-20 02:31:00,80.9,72.6,29.57,WSW,248,0.0,1.0,76,0.00,,,0.00,0,WeatherCatV1.20B785,2013-07-20 06:31:00,
2013-07-20 02:36:00,80.7,72.4,29.57,SW,233,1.0,1.0,76,0.00,,,0.00,0,WeatherCatV1.20B785,2013-07-20 06:36:00,
2013-07-20 02:41:00,80.6,72.3,29.56,WSW,238,0.0,2.0,76,0.00,,,0.00,0,WeatherCatV1.20B785,2013-07-20 06:41:00,
2013-07-20 02:46:00,80.6,72.3,29.56,WSW,238,0.0,1.0,76,0.00,,,0.00,0,WeatherCatV1.20B785,2013-07-20 06:46:00,
2013-07-20 02:51:00,80.5,72.6,29.56,WSW,238,0.0,0.0,77,0.00,,,0.00,0,WeatherCatV1.20B785,2013-07-20 06:51:00,
2013-07-20 02:56:00,80.5,72.6,29.56,WSW,238,0.0,0.0,77,0.00,,,0.00,0,WeatherCatV1.20B785,2013-07-20 06:56:00,
2013-07-20 03:01:00,80.3,72.8,29.56,SSW,211,1.0,1.0,78,0.00,,,0.00,0,WeatherCatV1.20B785,2013-07-20 07:01:00,
2013-07-20 03:06:00,80.2,72.7,29.56,SSW,211,0.0,0.0,78,0.00,,,0.00,0,WeatherCatV1.20B785,2013-07-20 07:06:00,
2013-07-20 03:11:00,80.1,72.6,29.56,SSW,198,0.0,0.0,78,0.00,,,0.00,0,WeatherCatV1.20B785,2013-07-20 07:11:00,
2013-07-20 03:16:00,79.9,72.4,29.56,SSW,199,0.0,0.0,78,0.00,,,0.00,0,WeatherCatV1.20B785,2013-07-20 07:16:00,
2013-07-20 03:21:00,79.8,72.7,29.56,SSW,198,0.0,1.0,79,0.00,,,0.00,0,WeatherCatV1.20B785,2013-07-20 07:21:00,
2013-07-20 03:26:00,79.6,72.5,29.56,SSW,199,0.0,1.0,79,0.00,,,0.00,0,WeatherCatV1.20B785,2013-07-20 07:26:00,
2013-07-20 03:31:00,79.4,72.3,29.56,SSW,196,0.0,0.0,79,0.00,,,0.00,0,WeatherCatV1.20B785,2013-07-20 07:31:00,
2013-07-20 03:36:00,79.3,72.2,29.56,SSW,196,0.0,0.0,79,0.00,,,0.00,0,WeatherCatV1.20B785,2013-07-20 07:36:00,
2013-07-20 03:41:00,79.1,72.0,29.56,SSW,196,0.0,0.0,79,0.00,,,0.00,0,WeatherCatV1.20B785,2013-07-20 07:41:00,
2013-07-20 03:46:00,78.9,71.8,29.55,SSW,196,0.0,0.0,79,0.00,,,0.00,0,WeatherCatV1.20B785,2013-07-20 07:46:00,
2013-07-20 03:51:00,78.7,72.0,29.55,SSW,196,0.0,0.0,80,0.00,,,0.00,0,WeatherCatV1.20B785,2013-07-20 07:51:00,
2013-07-20 03:56:00,78.5,71.8,29.55,SSW,196,0.0,0.0,80,0.00,,,0.00,0,WeatherCatV1.20B785,2013-07-20 07:56:00,
2013-07-20 04:01:00,78.4,71.7,29.55,SSW,196,0.0,0.0,80,0.00,,,0.00,0,WeatherCatV1.20B785,2013-07-20 08:01:00,
2013-07-20 04:06:00,78.3,71.6,29.55,SSW,196,0.0,0.0,80,0.00,,,0.00,0,WeatherCatV1.20B785,2013-07-20 08:06:00,
2013-07-20 04:11:00,78.1,71.4,29.55,SSW,196,0.0,0.0,80,0.00,,,0.00,0,WeatherCatV1.20B785,2013-07-20 08:11:00,
2013-07-20 04:16:00,78.0,71.7,29.54,SSW,196,0.0,0.0,81,0.00,,,0.00,0,WeatherCatV1.20B785,2013-07-20 08:16:00,
2013-07-20 04:21:00,77.8,71.5,29.55,SSW,196,0.0,0.0,81,0.00,,,0.00,0,WeatherCatV1.20B785,2013-07-20 08:21:00,
2013-07-20 04:26:00,77.7,71.4,29.54,SSW,196,0.0,0.0,81,0.00,,,0.00,0,WeatherCatV1.20B785,2013-07-20 08:26:00,
2013-07-20 04:31:00,77.6,71.3,29.54,SSW,196,0.0,1.0,81,0.00,,,0.00,0,WeatherCatV1.20B785,2013-07-20 08:31:00,
2013-07-20 04:36:00,77.5,71.6,29.54,SSW,196,0.0,0.0,82,0.00,,,0.00,0,WeatherCatV1.20B785,2013-07-20 08:36:00,
2013-07-20 04:41:00,77.3,71.4,29.54,SSW,196,0.0,0.0,82,0.00,,,0.00,0,WeatherCatV1.20B785,2013-07-20 08:41:00,
2013-07-20 04:46:00,77.3,71.4,29.54,SSW,196,0.0,1.0,82,0.00,,,0.00,0,WeatherCatV1.20B785,2013-07-20 08:46:00,
2013-07-20 04:51:00,77.1,71.2,29.54,SSW,196,0.0,0.0,82,0.00,,,0.00,0,WeatherCatV1.20B785,2013-07-20 08:51:00,
2013-07-20 04:56:00,77.0,71.1,29.54,SSW,196,0.0,0.0,82,0.00,,,0.00,0,WeatherCatV1.20B785,2013-07-20 08:56:00,
2013-07-20 05:01:00,76.9,71.0,29.54,SSW,196,0.0,1.0,82,0.00,,,0.00,0,WeatherCatV1.20B785,2013-07-20 09:01:00,
2013-07-20 05:06:00,76.8,71.2,29.55,SSW,192,0.0,0.0,83,0.00,,,0.00,0,WeatherCatV1.20B785,2013-07-20 09:06:00,
2013-07-20 05:11:00,76.7,71.1,29.55,WSW,238,0.0,0.0,83,0.00,,,0.00,0,WeatherCatV1.20B785,2013-07-20 09:11:00,
2013-07-20 05:16:00,76.6,71.0,29.55,SW,232,0.0,2.0,83,0.00,,,0.00,0,WeatherCatV1.20B785,2013-07-20 09:16:00,
2013-07-20 05:21:00,76.4,70.8,29.55,SW,227,0.0,1.0,83,0.00,,,0.00,0,WeatherCatV1.20B785,2013-07-20 09:21:00,
2013-07-20 05:26:00,76.4,70.8,29.56,SW,227,0.0,0.0,83,0.00,,,0.00,0,WeatherCatV1.20B785,2013-07-20 09:26:00,
2013-07-20 05:31:00,76.4,70.8,29.56,SW,223,0.0,3.0,83,0.00,,,0.00,0,WeatherCatV1.20B785,2013-07-20 09:31:00,
2013-07-20 05:36:00,76.4,70.8,29.56,SW,221,1.0,4.0,83,0.00,,,0.00,0,WeatherCatV1.20B785,2013-07-20 09:36:00,
2013-07-20 05:41:00,76.4,70.8,29.56,South,191,0.0,1.0,83,0.00,,,0.00,0,WeatherCatV1.20B785,2013-07-20 09:41:00,
2013-07-20 05:46:00,76.5,70.9,29.56,West,279,1.0,3.0,83,0.00,,,0.00,0,WeatherCatV1.20B785,2013-07-20 09:46:00,
2013-07-20 05:51:00,76.5,70.6,29.56,SW,217,0.0,0.0,82,0.00,,,0.00,0,WeatherCatV1.20B785,2013-07-20 09:51:00,
2013-07-20 05:56:00,76.6,70.7,29.56,SSW,203,1.0,2.0,82,0.00,,,0.00,0,WeatherCatV1.20B785,2013-07-20 09:56:00,
2013-07-20 06:01:00,76.6,70.7,29.57,SSW,193,0.0,2.0,82,0.00,,,0.00,5,WeatherCatV1.20B785,2013-07-20 10:01:00,
2013-07-20 06:06:00,76.7,70.8,29.57,WSW,246,0.0,3.0,82,0.00,,,0.00,7,WeatherCatV1.20B785,2013-07-20 10:06:00,
2013-07-20 06:11:00,76.8,70.9,29.56,SW,219,0.0,3.0,82,0.00,,,0.00,5,WeatherCatV1.20B785,2013-07-20 10:11:00,
2013-07-20 06:16:00,76.9,71.0,29.57,SW,227,0.0,0.0,82,0.00,,,0.00,7,WeatherCatV1.20B785,2013-07-20 10:16:00,
2013-07-20 06:21:00,76.9,71.0,29.57,WSW,247,0.0,2.0,82,0.00,,,0.00,9,WeatherCatV1.20B785,2013-07-20 10:21:00,
2013-07-20 06:26:00,77.0,71.1,29.57,South,187,0.0,2.0,82,0.00,,,0.00,11,WeatherCatV1.20B785,2013-07-20 10:26:00,
2013-07-20 06:31:00,77.0,71.1,29.57,WSW,247,0.0,0.0,82,0.00,,,0.00,11,WeatherCatV1.20B785,2013-07-20 10:31:00,
2013-07-20 06:36:00,77.0,71.1,29.57,South,187,0.0,0.0,82,0.00,,,0.00,7,WeatherCatV1.20B785,2013-07-20 10:36:00,
2013-07-20 06:41:00,77.0,71.1,29.57,NW,305,0.0,2.0,82,0.00,,,0.00,7,WeatherCatV1.20B785,2013-07-20 10:41:00,
2013-07-20 06:46:00,77.0,71.1,29.57,WSW,252,0.0,2.0,82,0.00,,,0.00,11,WeatherCatV1.20B785,2013-07-20 10:46:00,
2013-07-20 06:51:00,77.0,71.1,29.57,SW,226,1.0,2.0,82,0.00,,,0.00,16,WeatherCatV1.20B785,2013-07-20 10:51:00,
2013-07-20 06:56:00,77.0,71.1,29.57,SSW,203,0.0,0.0,82,0.00,,,0.00,19,WeatherCatV1.20B785,2013-07-20 10:56:00,
2013-07-20 07:01:00,76.9,71.3,29.57,SSW,200,0.0,2.0,83,0.00,,,0.00,26,WeatherCatV1.20B785,2013-07-20 11:01:00,
2013-07-20 07:06:00,76.9,71.3,29.57,SSW,200,0.0,3.0,83,0.00,,,0.00,26,WeatherCatV1.20B785,2013-07-20 11:06:00,
2013-07-20 07:11:00,76.9,71.3,29.57,SSW,211,1.0,1.0,83,0.00,,,0.00,26,WeatherCatV1.20B785,2013-07-20 11:11:00,
2013-07-20 07:16:00,76.9,71.3,29.57,SSW,205,0.0,3.0,83,0.00,,,0.00,28,WeatherCatV1.20B785,2013-07-20 11:16:00,
2013-07-20 07:21:00,77.0,71.4,29.58,SSW,202,0.0,1.0,83,0.00,,,0.00,28,WeatherCatV1.20B785,2013-07-20 11:21:00,
2013-07-20 07:26:00,77.0,71.4,29.58,SSW,211,0.0,2.0,83,0.00,,,0.00,25,WeatherCatV1.20B785,2013-07-20 11:26:00,
2013-07-20 07:31:00,77.0,71.4,29.58,South,191,0.0,1.0,83,0.00,,,0.00,33,WeatherCatV1.20B785,2013-07-20 11:31:00,
2013-07-20 07:36:00,77.1,71.5,29.58,SSW,205,1.0,3.0,83,0.00,,,0.00,37,WeatherCatV1.20B785,2013-07-20 11:36:00,
2013-07-20 07:41:00,77.2,71.6,29.58,South,187,0.0,1.0,83,0.00,,,0.00,30,WeatherCatV1.20B785,2013-07-20 11:41:00,
2013-07-20 07:46:00,77.3,71.7,29.59,South,174,2.0,2.0,83,0.00,,,0.00,28,WeatherCatV1.20B785,2013-07-20 11:46:00,
2013-07-20 07:51:00,77.3,71.7,29.58,South,189,0.0,5.0,83,0.00,,,0.00,32,WeatherCatV1.20B785,2013-07-20 11:51:00,
2013-07-20 07:56:00,77.4,71.8,29.58,SSW,196,0.0,4.0,83,0.00,,,0.00,37,WeatherCatV1.20B785,2013-07-20 11:56:00,
2013-07-20 08:01:00,77.5,71.9,29.58,South,182,0.0,4.0,83,0.00,,,0.00,46,WeatherCatV1.20B785,2013-07-20 12:01:00,
2013-07-20 08:06:00,77.6,72.0,29.58,SSW,203,0.0,1.0,83,0.00,,,0.00,40,WeatherCatV1.20B785,2013-07-20 12:06:00,
2013-07-20 08:11:00,77.7,72.1,29.58,SW,229,0.0,4.0,83,0.00,,,0.00,44,WeatherCatV1.20B785,2013-07-20 12:11:00,
2013-07-20 08:16:00,77.8,72.2,29.58,SW,227,1.0,3.0,83,0.00,,,0.00,49,WeatherCatV1.20B785,2013-07-20 12:16:00,
2013-07-20 08:21:00,77.9,72.3,29.58,WSW,239,0.0,5.0,83,0.00,,,0.00,56,WeatherCatV1.20B785,2013-07-20 12:21:00,
2013-07-20 08:26:00,78.0,72.4,29.58,West,267,2.0,2.0,83,0.00,,,0.00,62,WeatherCatV1.20B785,2013-07-20 12:26:00,
2013-07-20 08:31:00,78.2,72.2,29.57,South,180,0.0,4.0,82,0.00,,,0.00,81,WeatherCatV1.20B785,2013-07-20 12:31:00,
2013-07-20 08:36:00,78.4,72.4,29.57,SSW,207,3.0,3.0,82,0.00,,,0.00,60,WeatherCatV1.20B785,2013-07-20 12:36:00,
2013-07-20 08:41:00,78.6,72.3,29.57,SSW,211,0.0,3.0,81,0.00,,,0.00,69,WeatherCatV1.20B785,2013-07-20 12:41:00,
2013-07-20 08:46:00,78.8,72.8,29.57,SW,222,1.0,1.0,82,0.00,,,0.00,70,WeatherCatV1.20B785,2013-07-20 12:46:00,
2013-07-20 08:51:00,79.0,72.7,29.56,South,175,0.0,2.0,81,0.00,,,0.00,69,WeatherCatV1.20B785,2013-07-20 12:51:00,
2013-07-20 08:56:00,79.1,72.4,29.56,WSW,254,1.0,4.0,80,0.00,,,0.00,70,WeatherCatV1.20B785,2013-07-20 12:56:00,
2013-07-20 09:01:00,79.3,72.6,29.56,WSW,243,3.0,4.0,80,0.00,,,0.00,83,WeatherCatV1.20B785,2013-07-20 13:01:00,
2013-07-20 09:06:00,79.4,72.7,29.57,SSW,198,3.0,6.0,80,0.00,,,0.00,77,WeatherCatV1.20B785,2013-07-20 13:06:00,
2013-07-20 09:11:00,79.5,72.8,29.57,South,190,2.0,2.0,80,0.00,,,0.00,79,WeatherCatV1.20B785,2013-07-20 13:11:00,
2013-07-20 09:16:00,79.7,73.0,29.57,South,187,0.0,1.0,80,0.00,,,0.00,79,WeatherCatV1.20B785,2013-07-20 13:16:00,
2013-07-20 09:21:00,79.8,72.7,29.57,SSW,208,0.0,2.0,79,0.00,,,0.00,98,WeatherCatV1.20B785,2013-07-20 13:21:00,
2013-07-20 09:26:00,80.0,73.3,29.57,South,191,3.0,4.0,80,0.00,,,0.00,81,WeatherCatV1.20B785,2013-07-20 13:26:00,
2013-07-20 09:31:00,80.1,73.0,29.56,SSW,198,1.0,3.0,79,0.00,,,0.00,67,WeatherCatV1.20B785,2013-07-20 13:31:00,
2013-07-20 09:36:00,80.3,72.8,29.57,SSW,199,2.0,6.0,78,0.00,,,0.00,69,WeatherCatV1.20B785,2013-07-20 13:36:00,
2013-07-20 09:41:00,80.4,72.9,29.57,SSW,211,0.0,5.0,78,0.00,,,0.00,79,WeatherCatV1.20B785,2013-07-20 13:41:00,
2013-07-20 09:46:00,80.5,73.0,29.57,WNW,296,2.0,3.0,78,0.00,,,0.00,76,WeatherCatV1.20B785,2013-07-20 13:46:00,
2013-07-20 09:51:00,80.7,73.2,29.57,SSE,157,0.0,5.0,78,0.00,,,0.00,47,WeatherCatV1.20B785,2013-07-20 13:51:00,
2013-07-20 09:56:00,80.9,73.0,29.57,South,185,2.0,5.0,77,0.00,,,0.00,60,WeatherCatV1.20B785,2013-07-20 13:56:00,
2013-07-20 10:01:00,81.0,72.7,29.57,West,269,0.0,4.0,76,0.00,,,0.00,54,WeatherCatV1.20B785,2013-07-20 14:01:00,
2013-07-20 10:06:00,81.1,72.8,29.57,SE,139,0.0,5.0,76,0.00,,,0.00,54,WeatherCatV1.20B785,2013-07-20 14:06:00,
2013-07-20 10:11:00,81.2,73.3,29.57,SW,231,0.0,4.0,77,0.00,,,0.00,74,WeatherCatV1.20B785,2013-07-20 14:11:00,
2013-07-20 10:16:00,81.4,73.1,29.57,SSW,207,1.0,5.0,76,0.00,,,0.00,83,WeatherCatV1.20B785,2013-07-20 14:16:00,
2013-07-20 10:21:00,81.7,73.4,29.57,North,5,0.0,1.0,76,0.00,,,0.00,77,WeatherCatV1.20B785,2013-07-20 14:21:00,
2013-07-20 10:26:00,81.9,72.8,29.57,South,175,2.0,4.0,74,0.00,,,0.00,81,WeatherCatV1.20B785,2013-07-20 14:26:00,
2013-07-20 10:31:00,82.2,73.1,29.57,WNW,303,3.0,10.0,74,0.00,,,0.00,107,WeatherCatV1.20B785,2013-07-20 14:31:00,
2013-07-20 10:36:00,82.5,72.9,29.56,West,259,2.0,6.0,73,0.00,,,0.00,125,WeatherCatV1.20B785,2013-07-20 14:36:00,
2013-07-20 10:41:00,82.8,73.6,29.56,South,188,4.0,4.0,74,0.00,,,0.00,109,WeatherCatV1.20B785,2013-07-20 14:41:00,
2013-07-20 10:46:00,83.1,73.5,29.56,SE,146,2.0,5.0,73,0.00,,,0.00,130,WeatherCatV1.20B785,2013-07-20 14:46:00,
2013-07-20 10:51:00,83.4,73.4,29.56,WNW,284,1.0,3.0,72,0.00,,,0.00,84,WeatherCatV1.20B785,2013-07-20 14:51:00,
2013-07-20 10:56:00,83.6,73.6,29.56,South,169,1.0,6.0,72,0.00,,,0.00,47,WeatherCatV1.20B785,2013-07-20 14:56:00,
2013-07-20 11:01:00,83.6,73.6,29.56,SW,235,3.0,3.0,72,0.00,,,0.00,130,WeatherCatV1.20B785,2013-07-20 15:01:00,
2013-07-20 11:06:00,83.8,73.8,29.56,SSW,198,0.0,4.0,72,0.00,,,0.00,90,WeatherCatV1.20B785,2013-07-20 15:06:00,
2013-07-20 11:11:00,84.0,74.0,29.55,NW,305,1.0,5.0,72,0.00,,,0.00,104,WeatherCatV1.20B785,2013-07-20 15:11:00,
2013-07-20 11:16:00,84.2,73.8,29.55,WSW,255,3.0,5.0,71,0.00,,,0.00,98,WeatherCatV1.20B785,2013-07-20 15:16:00,
2013-07-20 11:21:00,84.5,74.4,29.55,West,265,2.0,3.0,72,0.00,,,0.00,90,WeatherCatV1.20B785,2013-07-20 15:21:00,
2013-07-20 11:26:00,84.6,74.1,29.54,South,176,0.0,2.0,71,0.00,,,0.00,102,WeatherCatV1.20B785,2013-07-20 15:26:00,
2013-07-20 11:31:00,84.8,74.7,29.54,SSE,163,0.0,3.0,72,0.00,,,0.00,105,WeatherCatV1.20B785,2013-07-20 15:31:00,
2013-07-20 11:36:00,85.0,74.1,29.54,SW,217,0.0,7.0,70,0.00,,,0.00,174,WeatherCatV1.20B785,2013-07-20 15:36:00,
2013-07-20 11:41:00,85.2,74.7,29.54,SSW,206,1.0,10.0,71,0.00,,,0.00,213,WeatherCatV1.20B785,2013-07-20 15:41:00,
2013-07-20 11:46:00,85.5,74.1,29.54,South,173,3.0,6.0,69,0.00,,,0.00,156,WeatherCatV1.20B785,2013-07-20 15:46:00,
2013-07-20 11:51:00,85.6,74.2,29.54,South,184,1.0,4.0,69,0.00,,,0.00,135,WeatherCatV1.20B785,2013-07-20 15:51:00,
2013-07-20 11:56:00,85.7,74.3,29.54,SSE,165,1.0,6.0,69,0.00,,,0.00,199,WeatherCatV1.20B785,2013-07-20 15:56:00,
2013-07-20 12:01:00,85.9,74.9,29.54,WNW,294,4.0,4.0,70,0.00,,,0.00,223,WeatherCatV1.20B785,2013-07-20 16:01:00,
2013-07-20 12:06:00,86.1,74.7,29.53,SSE,162,0.0,4.0,69,0.00,,,0.00,188,WeatherCatV1.20B785,2013-07-20 16:06:00,
2013-07-20 12:11:00,86.3,74.5,29.53,SW,236,4.0,8.0,68,0.00,,,0.00,167,WeatherCatV1.20B785,2013-07-20 16:11:00,
2013-07-20 12:16:00,86.2,74.8,29.53,SW,217,1.0,4.0,69,0.00,,,0.00,98,WeatherCatV1.20B785,2013-07-20 16:16:00,
2013-07-20 12:21:00,86.2,75.2,29.53,SSW,202,5.0,6.0,70,0.00,,,0.00,146,WeatherCatV1.20B785,2013-07-20 16:21:00,
2013-07-20 12:26:00,86.3,74.5,29.53,SSE,167,4.0,8.0,68,0.00,,,0.00,153,WeatherCatV1.20B785,2013-07-20 16:26:00,
2013-07-20 12:31:00,86.5,75.9,29.53,South,188,1.0,4.0,71,0.00,,,0.00,135,WeatherCatV1.20B785,2013-07-20 16:31:00,
2013-07-20 12:36:00,86.8,75.8,29.52,SSE,166,3.0,4.0,70,0.00,,,0.00,128,WeatherCatV1.20B785,2013-07-20 16:36:00,
2013-07-20 12:41:00,87.2,75.8,29.52,East,93,2.0,5.0,69,0.00,,,0.00,120,WeatherCatV1.20B785,2013-07-20 16:41:00,
2013-07-20 12:46:00,87.4,75.1,29.52,SSE,159,0.0,7.0,67,0.00,,,0.00,151,WeatherCatV1.20B785,2013-07-20 16:46:00,
2013-07-20 12:51:00,87.6,74.8,29.52,SSW,202,0.0,3.0,66,0.00,,,0.00,144,WeatherCatV1.20B785,2013-07-20 16:51:00,
2013-07-20 12:56:00,87.7,74.9,29.52,SSE,162,1.0,5.0,66,0.00,,,0.00,243,WeatherCatV1.20B785,2013-07-20 16:56:00,
2013-07-20 13:01:00,87.9,75.1,29.52,SSW,194,0.0,4.0,66,0.00,,,0.00,190,WeatherCatV1.20B785,2013-07-20 17:01:00,
2013-07-20 13:06:00,88.4,75.6,29.51,SSW,209,2.0,5.0,66,0.00,,,0.00,265,WeatherCatV1.20B785,2013-07-20 17:06:00,
2013-07-20 13:11:00,88.6,75.3,29.52,SE,137,1.0,7.0,65,0.00,,,0.00,255,WeatherCatV1.20B785,2013-07-20 17:11:00,
2013-07-20 13:16:00,88.6,75.3,29.52,West,281,1.0,6.0,65,0.00,,,0.00,251,WeatherCatV1.20B785,2013-07-20 17:16:00,
2013-07-20 13:21:00,88.5,75.2,29.52,South,176,0.0,5.0,65,0.00,,,0.00,139,WeatherCatV1.20B785,2013-07-20 17:21:00,
2013-07-20 13:26:00,88.3,75.0,29.52,South,180,0.0,2.0,65,0.00,,,0.00,262,WeatherCatV1.20B785,2013-07-20 17:26:00,
2013-07-20 13:31:00,88.2,75.4,29.52,SSW,207,0.0,4.0,66,0.00,,,0.00,244,WeatherCatV1.20B785,2013-07-20 17:31:00,
2013-07-20 13:36:00,88.4,76.0,29.52,WSW,240,1.0,3.0,67,0.00,,,0.00,858,WeatherCatV1.20B785,2013-07-20 17:36:00,
2013-07-20 13:41:00,89.0,76.1,29.52,NW,312,0.0,3.0,66,0.00,,,0.00,701,WeatherCatV1.20B785,2013-07-20 17:41:00,
2013-07-20 13:46:00,88.8,74.5,29.53,WNW,299,0.0,7.0,63,0.00,,,0.00,905,WeatherCatV1.20B785,2013-07-20 17:46:00,
2013-07-20 13:51:00,89.1,75.8,29.52,WSW,252,1.0,3.0,65,0.00,,,0.00,905,WeatherCatV1.20B785,2013-07-20 17:51:00,
2013-07-20 13:56:00,89.5,75.7,29.52,WNW,288,0.0,3.0,64,0.00,,,0.00,884,WeatherCatV1.20B785,2013-07-20 17:56:00,
2013-07-20 14:01:00,89.3,75.0,29.52,SSW,193,0.0,5.0,63,0.00,,,0.00,780,WeatherCatV1.20B785,2013-07-20 18:01:00,
2013-07-20 14:06:00,89.7,75.9,29.53,South,171,3.0,6.0,64,0.00,,,0.00,766,WeatherCatV1.20B785,2013-07-20 18:06:00,
2013-07-20 14:11:00,89.7,75.4,29.52,ESE,113,1.0,6.0,63,0.00,,,0.00,837,WeatherCatV1.20B785,2013-07-20 18:11:00,
2013-07-20 14:16:00,90.5,75.7,29.52,South,178,3.0,3.0,62,0.00,,,0.00,656,WeatherCatV1.20B785,2013-07-20 18:16:00,
2013-07-20 14:21:00,90.4,76.1,29.52,NNW,329,0.0,2.0,63,0.00,,,0.00,485,WeatherCatV1.20B785,2013-07-20 18:21:00,
2013-07-20 14:26:00,90.0,75.7,29.52,WSW,246,2.0,7.0,63,0.00,,,0.00,747,WeatherCatV1.20B785,2013-07-20 18:26:00,
2013-07-20 14:31:00,89.9,75.6,29.52,South,184,4.0,6.0,63,0.00,,,0.00,747,WeatherCatV1.20B785,2013-07-20 18:31:00,
2013-07-20 14:36:00,89.7,75.4,29.52,WSW,247,3.0,4.0,63,0.00,,,0.00,146,WeatherCatV1.20B785,2013-07-20 18:36:00,
2013-07-20 14:41:00,90.0,75.7,29.52,SSW,192,0.0,5.0,63,0.00,,,0.00,795,WeatherCatV1.20B785,2013-07-20 18:41:00,
2013-07-20 14:46:00,90.3,75.9,29.51,SSE,161,2.0,3.0,63,0.00,,,0.00,91,WeatherCatV1.20B785,2013-07-20 18:46:00,
2013-07-20 14:51:00,90.2,75.4,29.51,SW,220,0.0,6.0,62,0.00,,,0.00,225,WeatherCatV1.20B785,2013-07-20 18:51:00,
2013-07-20 14:56:00,89.9,75.6,29.51,SW,236,0.0,0.0,63,0.00,,,0.00,729,WeatherCatV1.20B785,2013-07-20 18:56:00,
2013-07-20 15:01:00,90.3,75.9,29.50,West,267,7.0,8.0,63,0.00,,,0.00,788,WeatherCatV1.20B785,2013-07-20 19:01:00,
2013-07-20 15:06:00,90.5,75.7,29.50,SW,217,1.0,3.0,62,0.00,,,0.00,754,WeatherCatV1.20B785,2013-07-20 19:06:00,
2013-07-20 15:11:00,90.7,75.4,29.50,NW,304,1.0,8.0,61,0.00,,,0.00,708,WeatherCatV1.20B785,2013-07-20 19:11:00,
2013-07-20 15:16:00,90.6,75.3,29.50,South,188,1.0,5.0,61,0.00,,,0.00,163,WeatherCatV1.20B785,2013-07-20 19:16:00,
2013-07-20 15:21:00,90.1,75.3,29.50,NNW,329,1.0,4.0,62,0.00,,,0.00,773,WeatherCatV1.20B785,2013-07-20 19:21:00,
2013-07-20 15:27:00,90.8,75.4,29.50,South,180,0.0,7.0,61,0.00,,,0.00,729,WeatherCatV1.20B785,2013-07-20 19:27:00,
2013-07-20 15:32:00,90.7,76.3,29.50,South,174,2.0,3.0,63,0.00,,,0.00,745,WeatherCatV1.20B785,2013-07-20 19:32:00,
2013-07-20 15:37:00,91.0,75.6,29.50,SSW,213,0.0,7.0,61,0.00,,,0.00,765,WeatherCatV1.20B785,2013-07-20 19:37:00,
2013-07-20 15:42:00,90.9,76.0,29.50,SSW,192,3.0,6.0,62,0.00,,,0.00,705,WeatherCatV1.20B785,2013-07-20 19:42:00,
2013-07-20 15:47:00,91.1,75.2,29.50,SW,229,3.0,4.0,60,0.00,,,0.00,698,WeatherCatV1.20B785,2013-07-20 19:47:00,
2013-07-20 15:52:00,91.6,75.7,29.50,South,172,0.0,3.0,60,0.00,,,0.00,740,WeatherCatV1.20B785,2013-07-20 19:52:00,
2013-07-20 15:57:00,91.7,74.3,29.50,SSW,209,2.0,9.0,57,0.00,,,0.00,670,WeatherCatV1.20B785,2013-07-20 19:57:00,
2013-07-20 16:02:00,92.0,72.9,29.50,West,272,2.0,7.0,54,0.00,,,0.00,714,WeatherCatV1.20B785,2013-07-20 20:02:00,
2013-07-20 16:07:00,92.1,73.6,29.50,SW,219,4.0,5.0,55,0.00,,,0.00,563,WeatherCatV1.20B785,2013-07-20 20:07:00,
2013-07-20 16:12:00,91.5,73.0,29.50,West,273,1.0,5.0,55,0.00,,,0.00,466,WeatherCatV1.20B785,2013-07-20 20:12:00,
2013-07-20 16:17:00,91.6,73.6,29.50,South,173,3.0,4.0,56,0.00,,,0.00,661,WeatherCatV1.20B785,2013-07-20 20:17:00,
2013-07-20 16:22:00,92.2,73.1,29.50,SW,217,2.0,7.0,54,0.00,,,0.00,246,WeatherCatV1.20B785,2013-07-20 20:22:00,
2013-07-20 16:27:00,91.7,73.2,29.50,West,270,1.0,7.0,55,0.00,,,0.00,183,WeatherCatV1.20B785,2013-07-20 20:27:00,
2013-07-20 16:32:00,91.4,72.9,29.50,West,273,10.0,10.0,55,0.00,,,0.00,148,WeatherCatV1.20B785,2013-07-20 20:32:00,
2013-07-20 16:37:00,91.0,73.1,29.50,South,180,0.0,3.0,56,0.00,,,0.00,137,WeatherCatV1.20B785,2013-07-20 20:37:00,
2013-07-20 16:42:00,90.7,73.3,29.50,SSW,210,1.0,1.0,57,0.00,,,0.00,146,WeatherCatV1.20B785,2013-07-20 20:42:00,
2013-07-20 16:47:00,90.5,73.1,29.50,SSW,212,2.0,2.0,57,0.00,,,0.00,160,WeatherCatV1.20B785,2013-07-20 20:47:00,
2013-07-20 16:52:00,90.3,73.5,29.49,SSW,199,1.0,6.0,58,0.00,,,0.00,573,WeatherCatV1.20B785,2013-07-20 20:52:00,
2013-07-20 16:57:00,90.9,74.6,29.49,NW,306,5.0,5.0,59,0.00,,,0.00,561,WeatherCatV1.20B785,2013-07-20 20:57:00,
2013-07-20 17:02:00,91.3,74.9,29.49,SW,233,0.0,1.0,59,0.00,,,0.00,461,WeatherCatV1.20B785,2013-07-20 21:02:00,
2013-07-20 17:07:00,91.7,73.7,29.49,NNW,327,2.0,6.0,56,0.00,,,0.00,489,WeatherCatV1.20B785,2013-07-20 21:07:00,
2013-07-20 17:12:00,92.0,74.0,29.49,WSW,244,3.0,4.0,56,0.00,,,0.00,318,WeatherCatV1.20B785,2013-07-20 21:12:00,
2013-07-20 17:17:00,91.7,73.7,29.49,South,172,0.0,2.0,56,0.00,,,0.00,454,WeatherCatV1.20B785,2013-07-20 21:17:00,
2013-07-20 17:22:00,91.6,73.6,29.49,South,174,0.0,5.0,56,0.00,,,0.00,457,WeatherCatV1.20B785,2013-07-20 21:22:00,
2013-07-20 17:27:00,91.5,75.1,29.49,SSE,150,1.0,2.0,59,0.00,,,0.00,434,WeatherCatV1.20B785,2013-07-20 21:27:00,
2013-07-20 17:32:00,91.9,74.4,29.49,WSW,245,0.0,2.0,57,0.00,,,0.00,299,WeatherCatV1.20B785,2013-07-20 21:32:00,
2013-07-20 17:37:00,92.0,74.5,29.49,South,169,1.0,1.0,57,0.00,,,0.00,158,WeatherCatV1.20B785,2013-07-20 21:37:00,
2013-07-20 17:42:00,92.0,74.0,29.49,SSW,200,0.0,3.0,56,0.00,,,0.00,26,WeatherCatV1.20B785,2013-07-20 21:42:00,
2013-07-20 17:47:00,92.0,73.5,29.49,South,186,0.0,7.0,55,0.00,,,0.00,18,WeatherCatV1.20B785,2013-07-20 21:47:00,
2013-07-20 17:52:00,91.5,73.6,29.50,WNW,286,1.0,7.0,56,0.00,,,0.00,37,WeatherCatV1.20B785,2013-07-20 21:52:00,
2013-07-20 17:57:00,91.1,73.2,29.50,West,260,0.0,2.0,56,0.00,,,0.00,142,WeatherCatV1.20B785,2013-07-20 21:57:00,
2013-07-20 18:02:00,90.6,74.3,29.50,NNW,333,1.0,1.0,59,0.00,,,0.00,146,WeatherCatV1.20B785,2013-07-20 22:02:00,
2013-07-20 18:07:00,90.5,71.5,29.50,West,261,2.0,3.0,54,0.00,,,0.00,144,WeatherCatV1.20B785,2013-07-20 22:07:00,
2013-07-20 18:12:00,90.5,71.5,29.50,NNW,347,0.0,2.0,54,0.00,,,0.00,104,WeatherCatV1.20B785,2013-07-20 22:12:00,
2013-07-20 18:17:00,90.4,69.8,29.50,NNW,340,0.0,1.0,51,0.00,,,0.00,54,WeatherCatV1.20B785,2013-07-20 22:17:00,
2013-07-20 18:22:00,90.2,70.2,29.50,SSW,205,0.0,1.0,52,0.00,,,0.00,44,WeatherCatV1.20B785,2013-07-20 22:22:00,
2013-07-20 18:27:00,90.1,70.6,29.50,WNW,300,1.0,2.0,53,0.00,,,0.00,137,WeatherCatV1.20B785,2013-07-20 22:27:00,
2013-07-20 18:32:00,89.9,69.9,29.50,WNW,294,0.0,2.0,52,0.00,,,0.00,83,WeatherCatV1.20B785,2013-07-20 22:32:00,
2013-07-20 18:37:00,89.6,69.6,29.51,West,259,0.0,1.0,52,0.00,,,0.00,46,WeatherCatV1.20B785,2013-07-20 22:37:00,
2013-07-20 18:42:00,89.4,69.4,29.51,SW,232,1.0,2.0,52,0.00,,,0.00,39,WeatherCatV1.20B785,2013-07-20 22:42:00,
2013-07-20 18:47:00,89.1,69.1,29.52,WSW,240,0.0,3.0,52,0.00,,,0.00,30,WeatherCatV1.20B785,2013-07-20 22:47:00,
2013-07-20 18:52:00,88.7,68.8,29.51,WSW,240,0.0,2.0,52,0.00,,,0.00,23,WeatherCatV1.20B785,2013-07-20 22:52:00,
2013-07-20 18:57:00,88.3,68.4,29.52,West,277,1.0,3.0,52,0.00,,,0.00,14,WeatherCatV1.20B785,2013-07-20 22:57:00,
2013-07-20 19:02:00,88.0,70.8,29.52,WSW,240,1.0,3.0,57,0.00,,,0.00,12,WeatherCatV1.20B785,2013-07-20 23:02:00,
2013-07-20 19:07:00,87.7,71.6,29.51,SSW,194,0.0,0.0,59,0.00,,,0.00,11,WeatherCatV1.20B785,2013-07-20 23:07:00,
2013-07-20 19:12:00,87.3,71.7,29.51,SSW,194,0.0,1.0,60,0.00,,,0.00,12,WeatherCatV1.20B785,2013-07-20 23:12:00,
2013-07-20 19:17:00,87.0,72.4,29.52,SSW,192,0.0,0.0,62,0.00,,,0.00,11,WeatherCatV1.20B785,2013-07-20 23:17:00,
2013-07-20 19:22:00,86.6,72.5,29.52,SSW,192,0.0,0.0,63,0.00,,,0.00,11,WeatherCatV1.20B785,2013-07-20 23:22:00,
2013-07-20 19:27:00,86.2,72.6,29.53,SSW,192,0.0,0.0,64,0.00,,,0.00,7,WeatherCatV1.20B785,2013-07-20 23:27:00,
2013-07-20 19:32:00,85.8,72.6,29.54,SSW,202,0.0,1.0,65,0.00,,,0.00,0,WeatherCatV1.20B785,2013-07-20 23:32:00,
2013-07-20 19:37:00,85.3,72.6,29.54,SSW,202,0.0,0.0,66,0.00,,,0.00,0,WeatherCatV1.20B785,2013-07-20 23:37:00,
2013-07-20 19:42:00,84.8,72.6,29.54,SSW,202,0.0,0.0,67,0.00,,,0.00,0,WeatherCatV1.20B785,2013-07-20 23:42:00,
2013-07-20 19:47:00,84.5,72.8,29.54,SSW,202,0.0,0.0,68,0.00,,,0.00,0,WeatherCatV1.20B785,2013-07-20 23:47:00,
2013-07-20 19:52:00,84.0,72.7,29.55,SSW,210,0.0,7.0,69,0.00,,,0.00,0,WeatherCatV1.20B785,2013-07-20 23:52:00,
2013-07-20 19:57:00,83.5,72.7,29.55,WSW,253,2.0,2.0,70,0.00,,,0.00,0,WeatherCatV1.20B785,2013-07-20 23:57:00,
2013-07-20 20:02:00,83.1,72.7,29.55,SSW,198,0.0,0.0,71,0.00,,,0.00,0,WeatherCatV1.20B785,2013-07-21 00:02:00,
2013-07-20 20:07:00,82.7,72.3,29.55,South,188,0.0,2.0,71,0.00,,,0.00,0,WeatherCatV1.20B785,2013-07-21 00:07:00,
2013-07-20 20:12:00,82.5,72.5,29.55,South,188,0.0,0.0,72,0.00,,,0.00,0,WeatherCatV1.20B785,2013-07-21 00:12:00,
2013-07-20 20:17:00,82.2,72.2,29.55,South,187,0.0,1.0,72,0.00,,,0.00,0,WeatherCatV1.20B785,2013-07-21 00:17:00,
2013-07-20 20:22:00,82.0,72.5,29.55,South,187,0.0,1.0,73,0.00,,,0.00,0,WeatherCatV1.20B785,2013-07-21 00:22:00,
2013-07-20 20:27:00,81.8,72.7,29.56,South,188,0.0,1.0,74,0.00,,,0.00,0,WeatherCatV1.20B785,2013-07-21 00:27:00,
2013-07-20 20:32:00,81.4,72.3,29.56,WSW,242,0.0,2.0,74,0.00,,,0.00,0,WeatherCatV1.20B785,2013-07-21 00:32:00,
2013-07-20 20:37:00,81.2,72.5,29.56,South,188,0.0,3.0,75,0.00,,,0.00,0,WeatherCatV1.20B785,2013-07-21 00:37:00,
2013-07-20 20:42:00,80.9,72.2,29.56,SSW,199,2.0,3.0,75,0.00,,,0.00,0,WeatherCatV1.20B785,2013-07-21 00:42:00,
2013-07-20 20:47:00,80.5,72.2,29.57,SSW,194,1.0,2.0,76,0.00,,,0.00,0,WeatherCatV1.20B785,2013-07-21 00:47:00,
2013-07-20 20:52:00,80.2,72.3,29.57,South,177,0.0,1.0,77,0.00,,,0.00,0,WeatherCatV1.20B785,2013-07-21 00:52:00,
2013-07-20 20:57:00,80.0,72.1,29.57,South,177,0.0,0.0,77,0.00,,,0.00,0,WeatherCatV1.20B785,2013-07-21 00:57:00,
2013-07-20 21:02:00,79.8,71.9,29.57,SSW,209,0.0,0.0,77,0.00,,,0.00,0,WeatherCatV1.20B785,2013-07-21 01:02:00,
2013-07-20 21:07:00,79.6,71.7,29.57,South,186,0.0,1.0,77,0.00,,,0.00,0,WeatherCatV1.20B785,2013-07-21 01:07:00,
2013-07-20 21:12:00,79.4,71.9,29.57,South,186,0.0,0.0,78,0.00,,,0.00,0,WeatherCatV1.20B785,2013-07-21 01:12:00,
2013-07-20 21:17:00,79.3,71.8,29.57,South,186,0.0,0.0,78,0.00,,,0.00,0,WeatherCatV1.20B785,2013-07-21 01:17:00,
2013-07-20 21:22:00,79.2,71.7,29.57,South,186,0.0,0.0,78,0.00,,,0.00,0,WeatherCatV1.20B785,2013-07-21 01:22:00,
2013-07-20 21:27:00,79.1,72.0,29.57,South,186,0.0,0.0,79,0.00,,,0.00,0,WeatherCatV1.20B785,2013-07-21 01:27:00,
2013-07-20 21:32:00,79.0,72.3,29.57,South,186,0.0,0.0,80,0.00,,,0.00,0,WeatherCatV1.20B785,2013-07-21 01:32:00,
2013-07-20 21:37:00,78.9,72.6,29.57,South,186,0.0,0.0,81,0.00,,,0.00,0,WeatherCatV1.20B785,2013-07-21 01:37:00,
2013-07-20 21:42:00,78.8,72.5,29.57,South,186,0.0,0.0,81,0.00,,,0.00,0,WeatherCatV1.20B785,2013-07-21 01:42:00,
2013-07-20 21:47:00,78.7,72.4,29.57,South,186,0.0,0.0,81,0.00,,,0.00,0,WeatherCatV1.20B785,2013-07-21 01:47:00,
2013-07-20 21:52:00,78.5,72.5,29.57,South,186,0.0,0.0,82,0.00,,,0.00,0,WeatherCatV1.20B785,2013-07-21 01:52:00,
2013-07-20 21:57:00,78.4,72.4,29.58,South,186,0.0,0.0,82,0.00,,,0.00,0,WeatherCatV1.20B785,2013-07-21 01:57:00,
2013-07-20 22:02:00,78.4,72.8,29.58,South,186,0.0,0.0,83,0.00,,,0.00,0,WeatherCatV1.20B785,2013-07-21 02:02:00,
2013-07-20 22:07:00,78.2,72.6,29.58,South,186,0.0,0.0,83,0.00,,,0.00,0,WeatherCatV1.20B785,2013-07-21 02:07:00,
2013-07-20 22:12:00,78.1,72.5,29.58,South,186,0.0,0.0,83,0.00,,,0.00,0,WeatherCatV1.20B785,2013-07-21 02:12:00,
2013-07-20 22:17:00,77.9,72.3,29.58,South,186,0.0,0.0,83,0.00,,,0.00,0,WeatherCatV1.20B785,2013-07-21 02:17:00,
2013-07-20 22:22:00,77.8,72.6,29.57,South,186,0.0,0.0,84,0.00,,,0.00,0,WeatherCatV1.20B785,2013-07-21 02:22:00,
2013-07-20 22:27:00,77.6,72.4,29.57,South,186,0.0,0.0,84,0.00,,,0.00,0,WeatherCatV1.20B785,2013-07-21 02:27:00,
2013-07-20 22:32:00,77.6,72.4,29.57,South,186,0.0,0.0,84,0.00,,,0.00,0,WeatherCatV1.20B785,2013-07-21 02:32:00,
2013-07-20 22:37:00,77.5,72.3,29.57,South,186,0.0,0.0,84,0.00,,,0.00,0,WeatherCatV1.20B785,2013-07-21 02:37:00,
2013-07-20 22:42:00,77.4,72.5,29.57,South,186,0.0,0.0,85,0.00,,,0.00,0,WeatherCatV1.20B785,2013-07-21 02:42:00,
2013-07-20 22:47:00,77.4,72.5,29.58,South,186,0.0,0.0,85,0.00,,,0.00,0,WeatherCatV1.20B785,2013-07-21 02:47:00,
2013-07-20 22:52:00,77.3,72.4,29.58,South,186,0.0,0.0,85,0.00,,,0.00,0,WeatherCatV1.20B785,2013-07-21 02:52:00,
2013-07-20 22:57:00,77.3,72.4,29.58,South,186,0.0,0.0,85,0.00,,,0.00,0,WeatherCatV1.20B785,2013-07-21 02:57:00,
2013-07-20 23:02:00,77.3,72.4,29.59,South,186,0.0,0.0,85,0.00,,,0.00,0,WeatherCatV1.20B785,2013-07-21 03:02:00,
2013-07-20 23:07:00,77.2,72.3,29.59,South,186,0.0,0.0,85,0.00,,,0.00,0,WeatherCatV1.20B785,2013-07-21 03:07:00,
2013-07-20 23:12:00,77.1,72.6,29.59,South,186,0.0,0.0,86,0.00,,,0.00,0,WeatherCatV1.20B785,2013-07-21 03:12:00,
2013-07-20 23:17:00,77.1,72.6,29.59,South,186,0.0,0.0,86,0.00,,,0.00,0,WeatherCatV1.20B785,2013-07-21 03:17:00,
2013-07-20 23:22:00,77.0,72.5,29.59,South,186,0.0,0.0,86,0.00,,,0.00,0,WeatherCatV1.20B785,2013-07-21 03:22:00,
2013-07-20 23:27:00,76.9,72.4,29.59,South,186,0.0,0.0,86,0.00,,,0.00,0,WeatherCatV1.20B785,2013-07-21 03:27:00,
2013-07-20 23:32:00,76.8,72.6,29.60,South,186,0.0,0.0,87,0.00,,,0.00,0,WeatherCatV1.20B785,2013-07-21 03:32:00,
2013-07-20 23:37:00,76.7,72.5,29.60,South,186,0.0,0.0,87,0.00,,,0.00,0,WeatherCatV1.20B785,2013-07-21 03:37:00,
2013-07-20 23:42:00,76.7,72.5,29.61,South,186,0.0,0.0,87,0.00,,,0.00,0,WeatherCatV1.20B785,2013-07-21 03:42:00,
2013-07-20 23:47:00,76.6,72.8,29.60,South,186,0.0,0.0,88,0.00,,,0.00,0,WeatherCatV1.20B785,2013-07-21 03:47:00,
2013-07-20 23:52:00,76.5,72.7,29.60,South,186,0.0,0.0,88,0.00,,,0.00,0,WeatherCatV1.20B785,2013-07-21 03:52:00,
2013-07-20 23:57:00,76.4,72.6,29.60,South,186,0.0,0.0,88,0.00,,,0.00,0,WeatherCatV1.20B785,2013-07-21 03:57:00,